Regional Weather Roundup
Issued by NWS

Home | Current Version | Previous Version | Text Only | Print | Product List | Glossary Off
Versions: 1 2 3 4 5 6 7 8 9 10 11 12 13 14 15 16 17 18 19 20 21 22 23 24 25 26 27 28 29 30 31 32 33 34 35 36 37 38 39 40 41 42 43 44 45 46 47 48 49 50

998
ASUS43 KLOT 281512
RWRIL

ILLINOIS REGIONAL WEATHER ROUNDUP
NATIONAL WEATHER SERVICE CHICAGO/ROMEOVILLE IL
900 AM CST TUE FEB 28 2017

NOTE: "FAIR" INDICATES FEW OR NO CLOUDS BELOW 12,000 FEET WITH NO
SIGNIFICANT WEATHER AND/OR OBSTRUCTIONS TO VISIBILITY.

* THESE STATIONS ARE NOT UNDER NWS QUALITY CONTROL. THEY ALSO MAY NOT
  REPORT WEATHER SUCH AS PRECIPITATION OR FOG.

ILZ001-002-007-009-015-016-024-281600-
NORTHWEST ILLINOIS

CITY           SKY/WX    TMP DP  RH WIND       PRES   REMARKS
MOLINE         PTSUNNY   56  51  84 S15       29.70F
STERLING*      CLOUDY    54  52  93 S9G18     29.73F
$$

ILZ003-004-008-010-011-017-018-281600-
NORTH CENTRAL ILLINOIS

CITY           SKY/WX    TMP DP  RH WIND       PRES   REMARKS
ROCKFORD       CLOUDY    51  48  89 S12       29.76F
FREEPORT*      CLOUDY    50  49  97 S18       29.74F FOG
ROCHELLE*      CLOUDY    52  50  95 S17       29.76F
DE KALB*       CLOUDY    50  49  95 S16       29.78F
PERU*          CLOUDY    51  49  93 S13       29.78F
$$

ILZ005-006-012>014-019>023-281600-
NORTHEAST ILLINOIS

CITY           SKY/WX    TMP DP  RH WIND       PRES   REMARKS
CHICAGO-OHARE  CLOUDY    53  48  83 S16       29.80F
CHICAGO-MIDWAY CLOUDY    52  47  83 S14       29.82F
AURORA         CLOUDY    52  48  86 S14       29.79F
LANSING*       CLOUDY    50  49  97 S13G18    29.84F
JOLIET*        RAIN      53  51  93 S9        29.82F
WAUKEGAN       CLOUDY    49  46  90 SE7       29.78F FOG
DUPAGE AIRPORT CLOUDY    51  47  86 S20       29.78F
KANKAKEE*      CLOUDY    52  50  93 S15       29.84F
WHEELING       CLOUDY    52  47  83 S15       29.80F
MORRIS*        CLOUDY    51  49  93 S13       29.80F
ROMEOVILLE*    CLOUDY    51  51 100 S12       29.81F
NORTHERLY ISL    N/A     51  46  83 S14         N/A
$$

LMZ740>746-281600-
SOUTHERN LAKE MICHIGAN

STATION/POSITION SKY/WX   TEMP    WIND        PRES    VSBY  WAVE
                          AIR SEA DIR/SP/G                  HT/PER
                          (F)     (DEG/KT/KT) (MB)    (MI)  (FT/S)
HARRISON CRIB              50     190/ 20/ 21   N/A
BURNHAM HARBOR             51     190/ 14/ 18   N/A
CALUMET HARBOR             50     170/ 10/ 15 1009.9F
BURNS HARBOR               50     180/ 13/ 22 1011.9S
MICHIGAN CITY              49     150/ 16/ 19   N/A
$$

ILZ025>027-034>036-040-047-049-050-058-095>099-281600-
WEST-CENTRAL ILLINOIS

CITY           SKY/WX    TMP DP  RH WIND       PRES   REMARKS
QUINCY         CLOUDY    59  54  83 S16       29.74F
GALESBURG*     CLOUDY    54  52  94 S9        29.73F
MACOMB*        CLOUDY    56  53  90 S10       29.76F
JACKSONVILLE*  CLOUDY    57  53  88 S14       29.79F
PITTSFIELD*    CLOUDY    59  55  87 S13       29.78F
$$

ILZ028>032-037-038-041>044-048-051>054-059>061-281600-
CENTRAL ILLINOIS

CITY           SKY/WX    TMP DP  RH WIND       PRES   REMARKS
PONTIAC        LGT RAIN  52  52  99 S14       29.85S
BLOOMINGTON    LGT RAIN  52  52 100 S16       29.84F FOG
DECATUR        CLOUDY    53  53 100 S17G24    29.85F FOG
PEORIA         CLOUDY    54  53  97 S15       29.79F FOG
LACON*         CLOUDY    53  53  99 S13       29.78F
LINCOLN*       CLOUDY    54  54 100 S9        29.83F FOG
SPRINGFIELD    CLOUDY    58  53  84 S12       29.82F
TAYLORVILLE    CLOUDY    55  54  95 S15       29.84F
$$

ILZ033-039-045-046-055>057-062-063-281600-
EAST-CENTRAL ILLINOIS

CITY           SKY/WX    TMP DP  RH WIND       PRES   REMARKS
CHAMPAIGN      CLOUDY    53  51  93 S16       29.86F FOG
RANTOUL*       CLOUDY    53  53  99 S16       29.86F FOG
MATTOON        CLOUDY    52  52 100 S13G21    29.87F
PARIS*         CLOUDY    52  51  99 S14       29.91F FOG
$$

ILZ079-100>102-281600-
SOUTHWEST ILLINOIS

CITY           SKY/WX    TMP DP  RH WIND       PRES   REMARKS
ALTON          CLOUDY    57  54  88 S12       29.85F
BELLEVILLE     CLOUDY    59  59 100 VRB7      29.85S
CAHOKIA*       CLOUDY    62  56  80 S8        29.85F
SPARTA*        CLOUDY    57  55  94 S10G16    29.90S
$$

ILZ064>066-069>071-074>076-080>082-084>086-088>090-092>094-281600-
SOUTH-CENTRAL ILLINOIS

CITY           SKY/WX    TMP DP  RH WIND       PRES   REMARKS
CARBONDALE     CLOUDY    58  58 100 S12       29.91F FOG
CAIRO*         CLOUDY    60  60 100 S10G16    29.95S FOG
EFFINGHAM*     CLOUDY    53  53 100 SE8       29.91F
MARION         CLOUDY    59  57  94 S12       29.93F FOG
MT. VERNON     CLOUDY    57  56  96 S12G21    29.91S
CENTRALIA*     CLOUDY    59  57  95 S16G22    29.88F
SALEM*         CLOUDY    59  56  88 S9        29.89F
METROPOLIS*    CLOUDY    61  60  97 S8        29.97S FOG
$$

ILZ067-068-072-073-078-083-087-091-281600-
SOUTHEAST ILLINOIS

CITY           SKY/WX    TMP DP  RH WIND       PRES   REMARKS
LAWRENCEVILLE  CLOUDY    53  52  96 S8        29.94F
FLORA*         CLOUDY    55  54  95 S8        29.92F
FAIRFIELD*     CLOUDY    56  56 100 S6        29.91F
HARRISBURG*    CLOUDY    57  57 100 S8        29.94F FOG
ROBINSON*      CLOUDY    52  51  97 S8        29.94F
CARMI*         CLOUDY    56  56 100 S15       29.92F FOG
$$

ABBREVIATIONS USED IN REMARKS
   TC - TEMPERATURE IN CELSIUS
  WCI - WIND CHILL INDEX
   HX - HEAT INDEX
  VSB - VISIBILITY
$$





USA.gov is the U.S. government's official web portal to all federal, state and local government web resources and services.